Wind_Speed
8 9 10 8 6 7 8 8 8 8 7 7 6 5 5 5 5 4 4 4 4 3 3 3 2 1 2 3 3 4 4 2 3 3 4 3 4 5 7 7 7 7 4 4 3 3 1 5 5 5 5 4 5 3 3 3 3 4 3 4 2 3 4 6 8 7 4 3 6 4 3 6 3 2 1 1 3 2 1 3 2 3 3 4 3 2 4 10
9 9 10 9 7 8 8 8 8 7 7 6 6 6 5 5 5 5 4 4 4 4 3 3 2 2 2 2 2 3 3 2 4 4 4 4 4 5 6 8 8 7 5 4 4 4 3 2 3 5 5 3 3 3 2 3 4 4 3 3 3 6 5 5 8 6 2 3 6 3 2 4 4 4 3 2 1 3 1 3 3 4 5 3 2 2 7 10
9 7 8 8 7 8 8 8 7 7 6 5 6 6 6 6 6 4 4 4 4 4 4 3 2 2 2 2 2 3 1 4 5 3 3 4 4 5 6 8 7 6 5 4 4 5 4 3 3 5 5 4 2 3 3 4 2 2 4 3 4 6 3 3 6 6 3 3 7 4 2 1 2 3 2 3 1 1 4 5 2 4 7 4 2 6 9 10
9 7 7 7 7 8 8 8 8 7 6 6 6 7 6 6 5 4 4 4 4 4 4 3 2 2 1 1 2 2 1 5 3 1 4 5 4 5 6 7 7 6 5 4 4 4 5 5 6 5 5 3 4 3 3 3 1 2 3 3 3 2 1 2 5 5 2 3 6 5 3 1 2 2 2 4 3 3 6 6 7 8 7 6 4 7 11 10
9 8 7 6 8 8 7 8 8 8 7 7 7 7 6 5 5 4 4 4 4 4 4 3 3 2 1 1 1 2 2 5 1 2 5 4 4 4 6 8 7 5 5 4 3 4 4 4 7 6 5 3 4 4 2 3 2 3 2 2 3 2 2 1 3 3 3 3 5 6 4 2 2 1 2 6 5 5 5 5 7 7 5 8 8 10 11 11
11 9 7 6 7 7 8 9 8 8 8 7 7 6 6 5 5 4 4 4 4 4 4 3 3 1 0 1 2 1 4 2 2 3 4 4 4 4 7 8 7 6 5 3 3 3 3 4 7 4 3 3 3 3 1 4 2 4 1 1 3 2 2 1 1 3 4 6 6 5 3 2 3 1 1 6 8 7 4 3 4 5 5 8 10 12 12 12
11 9 7 7 6 6 7 9 8 9 9 8 7 7 7 6 5 4 4 4 4 4 3 3 2 1 1 1 1 4 5 1 1 4 5 4 3 3 6 7 7 6 3 4 4 4 4 6 6 3 4 4 1 3 1 4 4 5 2 1 2 2 1 1 1 3 4 5 4 3 2 3 2 3 1 4 11 6 3 2 2 5 5 8 10 10 11 13
11 9 8 7 6 6 6 8 8 9 9 9 8 7 7 6 5 5 5 5 5 4 4 3 2 2 2 2 2 4 3 1 1 5 6 4 2 3 5 5 6 4 5 9 5 4 4 5 4 4 4 2 3 3 2 3 6 5 3 2 1 0 2 1 2 4 3 2 2 2 2 2 4 2 0 8 11 3 1 2 2 4 6 8 8 8 9 10
10 9 8 7 6 5 6 7 8 9 9 9 8 7 7 7 7 6 6 6 5 5 4 4 3 3 3 3 6 4 2 2 1 5 6 5 3 4 4 6 6 5 9 11 6 4 3 2 3 4 4 3 4 2 3 3 2 2 3 2 2 2 4 1 3 4 2 1 1 2 1 3 2 1 3 8 6 2 2 4 3 5 6 5 5 6 8 9
11 10 9 8 7 6 6 7 8 8 8 8 7 7 8 8 7 6 7 6 6 6 5 5 4 4 5 4 7 3 3 3 2 6 6 5 3 3 5 7 8 8 10 11 10 8 3 5 5 5 7 3 3 2 3 3 3 3 4 3 4 2 3 2 3 3 2 1 1 3 2 4 3 1 4 4 1 2 3 4 2 4 5 4 3 4 7 9
12 11 10 9 8 7 6 5 5 6 7 7 6 7 7 7 7 7 7 7 6 7 6 6 6 5 5 6 6 3 2 3 3 6 7 6 4 3 6 7 7 8 9 10 11 8 6 8 8 6 3 2 3 3 3 2 3 2 3 3 5 5 3 4 3 3 2 1 2 4 1 4 3 1 4 1 1 1 4 3 2 3 4 3 3 3 6 8
12 11 10 9 8 7 6 5 5 5 6 6 5 6 6 7 7 7 8 8 7 7 7 7 6 6 5 5 3 4 2 3 3 6 7 6 5 6 9 8 7 8 8 9 7 6 8 8 8 6 1 3 3 2 2 2 3 1 2 2 5 7 4 4 3 3 2 1 2 3 1 5 3 6 4 1 0 2 4 4 3 3 3 2 3 2 4 7
12 11 10 9 8 6 6 6 5 4 4 5 4 5 6 7 7 7 8 8 8 8 8 7 6 6 5 3 2 4 4 3 4 7 7 7 7 9 10 8 9 10 10 11 9 7 8 5 9 8 3 6 3 0 4 4 3 1 3 3 3 6 4 3 3 2 1 2 1 1 2 5 7 11 6 2 2 4 2 5 4 4 4 3 3 3 4 7
13 12 11 9 8 7 6 5 5 4 4 4 4 5 6 7 7 8 8 8 8 8 7 7 7 6 5 1 2 4 4 4 6 8 9 9 10 11 11 9 10 11 11 13 12 11 9 7 12 9 3 4 3 2 4 6 4 2 2 2 2 1 4 5 2 1 4 1 2 2 3 6 8 10 6 3 3 5 5 6 5 5 4 4 4 4 5 6
15 14 13 10 8 8 6 5 5 4 4 4 4 5 6 8 8 8 9 8 8 8 8 7 7 5 4 1 1 3 4 5 7 8 9 10 10 10 9 9 11 12 12 12 12 12 9 7 9 6 1 2 3 5 4 4 4 3 1 2 3 1 5 7 2 3 2 1 2 2 3 6 9 9 5 3 3 4 6 7 5 6 6 5 5 5 4 5
13 13 12 11 9 7 5 4 3 3 4 4 4 6 8 8 8 9 9 9 9 8 7 6 5 6 4 0 1 2 3 5 7 8 9 9 8 9 11 11 10 11 11 10 9 9 9 8 5 3 2 2 5 5 4 4 4 4 1 2 1 1 3 5 1 1 1 1 1 1 2 4 5 5 4 2 4 4 5 8 7 7 7 6 5 5 4 5
11 11 10 11 10 6 5 3 3 4 4 5 7 9 9 9 9 10 10 10 10 7 7 6 5 5 2 1 1 1 1 5 7 9 8 8 8 11 12 9 7 9 9 8 6 5 8 7 2 1 3 3 3 4 4 2 3 4 3 1 3 2 2 3 2 2 3 2 2 2 3 7 7 6 5 2 5 5 6 10 9 7 7 6 5 5 5 5
11 9 8 9 9 7 4 4 4 4 4 6 9 11 11 11 11 12 12 12 11 9 7 4 4 4 1 2 2 1 2 6 9 9 9 10 10 11 10 6 6 7 7 6 5 4 5 4 2 2 4 3 2 5 3 3 3 3 2 1 2 2 3 4 3 1 2 1 3 3 5 11 12 11 9 4 5 6 9 10 7 6 7 8 7 7 6 6
11 9 8 8 8 6 5 5 4 3 5 8 12 15 14 12 10 9 8 7 6 5 3 2 3 4 3 2 1 4 6 8 9 8 8 11 11 11 11 8 6 6 5 2 4 4 2 3 4 2 1 1 4 5 6 7 6 7 5 4 3 3 4 5 5 4 1 1 4 6 7 11 11 11 11 6 4 6 9 8 7 7 8 8 8 8 7 8
11 10 9 8 7 5 5 5 4 4 7 11 14 14 10 7 6 3 1 0 3 4 3 3 3 4 2 0 3 9 9 6 4 4 8 11 12 12 8 7 6 7 4 3 0 2 3 4 1 5 6 7 7 6 6 5 6 7 5 4 4 3 4 5 3 5 1 2 6 7 7 10 10 11 13 8 3 6 10 9 10 10 9 9 10 10 10 9
12 11 10 9 8 5 5 5 4 5 9 13 14 8 4 4 3 1 3 3 3 4 4 1 3 3 2 3 7 9 6 4 3 2 8 8 8 8 2 4 5 4 1 2 1 2 5 4 6 7 7 7 6 7 8 6 6 6 5 4 1 4 6 5 1 4 2 2 6 5 5 11 11 11 13 8 5 9 12 12 13 13 11 10 11 12 10 7
12 12 11 10 8 6 5 4 4 6 9 13 10 2 2 5 5 4 3 1 2 1 3 3 3 2 2 3 7 6 3 4 2 1 6 5 3 4 1 4 5 3 1 1 2 4 3 3 8 5 7 6 5 6 7 6 6 5 4 4 2 3 4 5 2 4 2 2 5 5 6 10 10 11 14 13 11 11 11 12 13 12 11 12 11 10 9 7
13 12 11 10 9 7 5 4 4 5 9 11 8 3 3 6 7 5 5 3 2 2 2 3 2 2 2 1 7 6 3 4 3 4 7 6 2 3 4 5 5 4 2 3 5 4 2 6 7 6 8 8 7 5 7 7 4 3 4 4 3 2 1 3 3 4 2 1 3 5 8 9 8 10 13 13 10 9 10 11 11 10 13 14 9 7 9 10
14 13 12 11 10 9 6 5 4 5 8 11 9 6 6 7 6 3 4 3 2 3 1 3 3 5 4 2 9 9 2 3 5 5 9 8 4 2 4 5 5 5 4 6 7 6 5 5 2 6 5 7 7 4 6 6 1 2 4 5 3 3 4 5 3 4 2 2 2 4 7 7 4 5 9 7 4 8 9 8 11 12 13 12 8 6 9 10
15 13 13 12 11 10 8 5 5 6 8 10 11 9 9 8 5 4 4 4 2 4 3 2 2 5 6 5 9 9 2 1 3 5 10 10 7 4 2 3 4 4 6 5 6 3 6 4 5 7 4 6 8 4 5 7 3 4 4 8 7 5 4 3 3 5 4 3 3 4 4 6 3 3 7 5 4 7 6 5 12 13 9 8 8 8 8 8
16 14 14 13 12 13 10 4 6 9 7 7 12 13 11 8 7 6 5 5 3 4 1 3 3 5 8 6 7 6 3 3 3 2 9 9 5 5 3 1 2 3 6 5 4 2 2 0 4 7 5 5 6 2 6 7 5 2 4 7 7 5 4 2 1 1 1 3 2 3 2 6 6 4 7 5 5 9 8 8 13 10 7 7 7 8 7 7
17 16 15 15 16 16 10 3 7 11 4 6 14 17 12 10 9 6 4 4 4 3 4 2 1 5 8 6 6 7 3 5 1 4 4 5 1 4 4 4 1 2 4 4 1 3 3 2 4 6 6 6 5 3 6 8 7 3 3 4 7 7 5 4 3 2 2 3 3 2 4 3 8 6 5 4 5 9 11 14 15 6 5 8 7 7 7 7
20 18 15 16 19 18 9 5 12 12 3 6 18 19 14 12 9 4 5 1 3 2 4 1 1 4 3 2 4 5 2 2 4 1 2 3 1 4 4 7 6 5 4 5 4 4 3 6 6 7 5 4 5 4 7 10 6 4 3 6 6 6 5 5 5 2 1 3 4 1 4 2 8 6 3 4 2 7 11 16 13 5 5 7 6 6 5 5
22 20 16 17 19 18 10 5 12 12 5 11 22 21 16 13 7 5 5 2 2 1 2 1 3 2 2 3 3 4 2 2 2 2 3 4 1 4 3 6 6 6 2 3 5 3 1 5 7 7 5 5 4 1 4 8 4 3 6 7 6 6 5 5 4 3 2 3 3 5 5 3 6 5 0 1 1 6 11 12 9 7 7 6 4 4 3 3
24 23 18 19 20 19 14 10 13 11 7 14 22 22 16 9 4 5 2 4 1 1 1 1 2 0 5 7 1 3 3 2 1 1 3 1 3 6 2 3 6 6 1 4 1 2 2 1 2 3 4 5 5 4 1 3 5 7 7 6 7 5 5 4 2 4 2 4 5 6 7 3 4 5 3 3 4 6 8 7 7 7 6 5 4 3 3 3
24 25 24 23 22 21 14 8 14 13 8 16 22 19 12 4 3 5 4 3 1 1 2 1 1 3 9 10 3 1 3 2 0 3 3 1 3 4 2 2 4 4 2 3 2 3 4 1 1 1 2 4 6 5 4 3 5 6 5 5 4 3 4 4 4 4 1 5 4 3 2 1 5 7 3 5 7 6 6 6 7 7 6 4 3 2 3 4
25 26 28 27 22 22 15 6 12 15 11 19 20 11 5 3 1 5 4 1 1 3 5 3 2 5 8 6 3 5 4 2 1 4 4 3 4 4 4 5 5 2 2 5 2 3 2 3 2 1 1 4 6 5 5 4 3 4 5 6 4 2 3 2 3 1 2 6 3 2 1 2 8 8 7 11 12 10 9 9 9 8 7 5 3 3 3 4
28 27 30 30 24 22 18 7 10 16 17 22 15 4 4 4 5 9 7 3 2 2 3 4 2 5 8 6 3 4 3 2 4 3 2 4 5 5 4 3 5 3 2 5 3 1 3 5 2 2 1 3 7 6 3 1 2 4 5 6 4 2 1 3 3 1 4 4 2 1 1 3 6 6 11 17 17 12 8 9 9 9 8 6 4 3 4 4
25 30 32 33 28 23 18 11 11 18 22 19 8 4 5 6 7 11 10 5 0 2 3 4 5 5 5 4 3 4 3 1 4 4 2 4 5 5 5 5 5 2 3 4 3 5 5 6 4 6 2 5 9 6 5 6 5 4 4 5 5 5 5 4 3 3 4 3 2 2 1 4 3 3 7 11 10 8 7 7 7 7 7 5 3 3 4 5
18 31 34 32 30 26 22 15 12 19 21 11 5 5 8 9 8 9 8 4 1 2 4 3 6 6 3 1 2 3 4 1 2 4 2 4 5 5 5 7 9 5 4 4 2 2 4 6 5 2 2 6 8 2 4 7 3 2 2 4 3 5 5 2 2 5 2 2 3 2 4 5 4 7 9 7 7 7 7 6 5 9 8 4 5 5 5 5
12 25 30 29 31 32 28 21 16 22 17 6 6 8 8 10 7 5 6 5 4 6 6 3 4 5 3 1 1 4 2 2 4 4 2 3 3 5 5 6 9 9 7 6 3 2 2 4 5 3 3 2 3 1 2 3 3 2 3 3 4 4 6 4 2 1 3 2 4 1 4 5 4 8 10 8 9 9 7 7 6 9 6 4 7 7 6 7
10 16 18 20 28 33 32 26 20 19 9 3 9 11 8 10 5 5 6 5 7 10 9 4 3 5 5 3 4 7 3 2 4 4 3 3 3 6 7 4 6 13 11 5 2 3 4 2 4 2 1 2 1 1 3 3 3 5 3 6 3 2 4 4 1 2 3 3 4 1 5 6 3 6 4 1 6 10 10 9 9 8 5 5 9 7 7 7
10 9 7 14 26 31 32 31 24 17 5 1 8 10 8 8 2 5 5 5 8 9 8 7 6 5 7 6 5 7 6 4 5 5 4 3 5 7 10 5 5 13 12 5 2 3 4 2 5 1 3 3 4 2 2 4 2 4 4 4 4 3 2 2 2 2 1 3 4 4 5 5 6 6 1 2 7 10 11 11 10 9 7 8 9 7 6 6
8 4 2 12 24 29 33 33 24 13 5 5 10 9 5 5 1 2 4 4 6 8 8 8 5 3 5 7 6 7 8 7 7 6 4 5 5 5 11 8 5 10 12 9 5 3 3 3 4 1 2 2 3 2 4 2 2 3 1 2 2 2 3 3 3 3 3 2 3 4 4 6 8 6 6 9 10 10 10 10 9 11 10 8 8 6 6 6
5 1 2 9 18 28 35 29 15 8 7 8 9 6 1 1 2 1 2 2 3 4 6 6 5 5 4 5 4 5 7 6 8 7 4 6 6 5 7 8 5 6 9 9 6 1 3 2 4 3 3 1 3 4 7 9 6 3 3 4 3 1 2 1 1 2 3 3 2 2 5 10 7 5 8 10 10 11 11 9 9 10 11 9 7 5 5 6
3 2 3 9 19 29 31 18 6 6 6 3 6 4 1 2 1 2 2 2 2 1 3 5 6 6 6 5 3 4 6 5 7 6 4 7 7 5 5 8 9 8 6 6 6 4 3 3 3 2 2 4 5 4 4 6 5 5 5 6 7 5 4 2 1 1 2 3 4 3 6 13 7 5 8 8 8 9 9 8 8 8 9 8 6 5 6 6
3 4 1 11 27 31 21 8 3 6 4 4 5 3 0 2 2 3 3 2 2 1 2 3 3 4 5 5 3 5 7 5 6 6 5 8 9 6 5 6 11 13 10 5 4 3 3 3 3 3 4 6 5 3 1 3 2 3 1 3 5 4 4 5 4 4 2 1 1 4 4 12 5 5 6 5 5 5 4 6 8 7 7 6 5 5 5 5
4 4 1 13 34 31 12 6 5 4 2 2 1 2 2 0 1 2 3 2 2 1 2 1 2 3 4 3 4 6 7 5 7 9 6 6 8 6 5 8 11 11 8 3 1 1 3 3 3 2 3 2 2 3 2 1 3 2 1 2 6 7 6 5 4 4 4 4 3 4 5 12 3 1 2 1 2 4 2 4 7 7 5 4 5 5 4 5
3 2 2 14 34 27 8 5 5 3 3 2 0 4 5 2 3 3 3 4 3 2 3 2 2 3 3 3 5 8 9 6 8 11 7 4 5 3 6 12 12 10 6 4 5 6 5 4 4 2 2 3 3 2 2 2 1 3 3 4 7 8 6 3 1 3 2 9 10 6 8 12 3 3 2 3 4 6 6 4 5 7 6 4 5 5 4 5
3 2 1 9 21 16 5 4 6 4 4 4 2 6 7 4 5 6 5 2 1 2 3 2 1 2 3 4 4 6 10 10 8 8 7 4 3 2 3 10 13 10 6 3 5 7 6 4 6 6 6 8 7 5 4 2 2 2 4 7 9 10 12 7 3 4 7 10 9 7 12 12 4 3 2 4 4 5 8 5 4 6 7 6 5 4 4 4
1 3 1 3 6 5 3 3 7 6 5 5 3 5 9 8 4 5 6 4 2 3 2 1 1 2 2 4 5 5 9 11 6 4 6 6 3 2 2 9 11 9 6 6 7 6 3 3 8 11 11 13 12 8 5 8 7 7 9 12 13 14 15 11 5 8 9 4 5 12 18 16 13 5 3 5 4 5 7 6 6 8 8 8 7 5 4 5
2 2 4 4 2 2 2 1 6 8 7 8 5 3 9 11 4 2 6 6 4 4 4 1 1 3 2 4 6 5 6 8 5 4 5 5 3 1 0 4 6 6 5 7 7 6 3 3 9 13 14 15 12 6 7 9 10 13 14 14 14 14 13 13 13 15 8 4 8 19 12 11 21 14 6 6 6 5 7 8 8 9 7 6 5 4 6 6
2 1 1 3 3 4 5 5 8 9 8 9 6 3 7 10 7 5 6 5 3 4 4 2 4 10 9 6 5 3 4 6 6 6 5 4 2 1 1 1 3 5 5 5 5 5 4 5 9 11 13 16 12 4 8 8 5 6 10 12 15 16 17 19 23 20 9 6 16 19 7 10 22 16 8 9 7 6 9 10 8 6 5 5 4 6 7 8
1 1 2 2 2 5 7 8 10 10 11 11 7 5 8 10 11 9 5 4 3 6 7 7 10 14 13 9 6 4 5 6 6 7 5 4 5 4 3 2 2 2 4 5 3 3 4 6 7 7 8 14 14 6 9 8 2 2 7 11 14 19 22 24 23 20 13 13 21 19 10 16 21 11 7 9 9 9 9 7 5 6 7 8 7 8 9 9
1 1 1 2 2 2 5 7 9 9 9 11 9 7 9 12 14 10 6 7 7 5 9 13 14 11 12 13 10 9 10 8 9 8 5 5 5 4 4 4 2 1 3 4 2 1 3 5 4 4 3 11 14 6 8 8 6 5 7 10 15 19 20 19 17 15 14 17 20 15 15 21 15 4 6 8 8 8 8 9 9 10 11 11 10 10 10 10
3 1 1 1 2 2 3 5 9 8 6 9 10 8 9 13 14 10 6 7 9 7 11 18 17 8 8 12 12 15 16 12 11 7 4 4 5 4 4 3 5 4 4 4 2 1 3 2 1 3 3 12 14 7 6 6 4 5 10 17 21 16 11 11 13 14 14 15 15 11 14 20 9 5 5 7 8 10 12 13 13 13 13 13 12 12 12 12
4 1 2 2 1 2 2 3 7 9 6 8 11 11 11 12 11 10 4 5 9 12 12 15 13 6 6 12 16 19 17 13 11 6 4 3 2 2 1 3 6 7 6 4 1 2 4 3 1 3 5 12 12 5 7 6 2 6 14 22 22 12 9 11 14 16 15 13 12 11 17 20 9 5 5 7 9 12 13 13 15 15 15 13 12 13 13 13
Wind_Direction
188 192 199 202 181 181 185 183 180 187 195 194 197 204 216 225 232 235 237 235 221 225 231 237 260 289 315 334 355 3 11 93 135 98 92 92 79 73 49 36 27 24 21 19 47 155 124 37 45 80 95 54 17 347 24 21 50 58 77 99 145 172 198 189 175 193 166 168 199 214 185 141 162 210 178 143 51 37 316 303 288 294 267 236 272 284 171 159
197 213 215 215 200 188 186 183 184 194 196 193 198 205 214 221 230 237 238 239 225 226 232 237 255 273 305 337 355 9 20 107 124 92 89 116 91 69 46 31 23 19 25 40 51 100 120 14 27 70 65 47 355 356 38 4 51 83 109 104 199 192 202 200 171 180 159 140 168 175 157 150 175 167 140 187 306 8 236 273 327 312 274 240 266 170 160 159
195 218 210 207 205 195 190 185 185 193 191 193 201 205 213 220 226 234 237 237 225 226 234 237 248 269 313 330 353 10 56 103 87 79 107 123 101 68 43 29 21 20 24 37 46 65 108 138 109 85 60 56 5 7 43 9 25 124 110 100 232 207 211 224 180 186 204 147 143 151 142 152 214 157 144 192 197 13 214 232 234 263 252 221 202 154 158 166
194 210 200 195 201 192 190 192 190 189 186 194 204 206 213 218 222 227 231 229 223 227 232 232 242 262 304 324 10 3 121 92 60 208 134 123 103 63 37 26 20 25 20 25 47 67 100 107 87 76 69 57 341 17 51 350 331 109 102 157 219 192 129 206 199 196 193 140 135 137 119 139 232 167 153 155 153 272 243 228 209 223 225 199 195 167 167 175
197 206 206 201 202 190 190 197 195 191 190 197 205 208 211 216 219 218 221 220 220 223 226 226 233 252 288 357 9 314 42 80 212 192 133 130 106 56 31 25 21 28 16 19 49 85 99 83 64 51 58 57 345 29 50 313 71 75 43 183 190 149 87 228 218 180 147 98 101 118 138 180 161 138 155 158 193 242 228 231 217 214 202 184 180 171 173 182
200 203 204 205 202 193 198 197 194 197 198 200 202 207 210 213 211 209 212 213 219 222 222 218 215 226 216 44 12 354 71 96 236 165 143 137 104 43 29 24 24 27 15 33 55 84 81 44 56 50 54 61 360 58 64 303 50 90 17 311 210 186 84 324 232 169 135 104 118 146 171 111 87 258 191 178 222 227 209 239 231 234 224 185 166 164 175 186
201 204 203 203 200 197 202 198 196 201 200 201 203 205 208 208 205 203 204 206 214 215 210 209 203 183 127 80 44 48 78 112 277 150 154 134 114 38 34 27 26 23 23 60 54 89 81 48 73 122 81 70 187 98 18 316 39 89 105 297 211 178 53 300 164 131 111 116 165 184 123 104 152 230 60 229 240 236 244 280 251 235 204 171 159 167 181 185
203 206 207 201 199 201 204 203 204 204 201 203 204 203 206 204 196 193 194 201 204 201 196 191 176 148 111 112 105 45 40 337 34 150 151 134 126 35 37 40 37 34 63 59 54 130 102 63 114 156 81 81 157 100 347 7 38 68 129 208 166 89 343 340 110 93 89 109 183 138 105 188 204 191 27 251 248 243 250 58 89 136 143 160 164 174 179 179
205 203 206 203 199 201 207 207 205 204 202 201 199 198 202 198 192 188 188 192 190 186 181 167 154 135 127 108 93 76 296 327 59 153 148 141 111 38 43 58 50 58 69 56 54 106 114 133 180 174 131 146 125 76 338 57 57 98 129 167 100 2 337 64 105 57 37 76 111 143 353 297 238 202 261 260 253 200 112 74 82 122 134 165 166 177 177 177
211 206 202 203 201 204 213 210 203 200 199 197 195 196 198 194 187 183 182 184 181 175 167 161 149 125 140 118 83 103 264 11 98 158 146 143 118 56 62 65 62 74 74 58 56 62 86 166 173 148 129 116 99 60 346 81 132 123 113 118 79 9 331 52 95 28 350 181 140 176 269 304 323 312 253 281 6 133 105 79 85 134 156 173 163 186 184 186
210 206 200 203 202 206 210 209 205 197 194 192 192 192 193 189 182 181 179 176 173 166 158 155 142 126 133 113 100 170 237 48 115 152 146 145 121 82 73 68 68 81 81 65 58 57 87 139 141 125 106 97 98 45 8 93 118 92 115 114 15 357 5 25 39 360 348 175 166 144 196 306 357 282 233 274 10 143 125 137 148 157 182 184 180 197 193 200
202 201 201 204 204 206 202 204 212 200 189 182 181 183 179 181 182 179 173 168 167 159 153 148 143 143 115 83 118 183 164 83 121 143 151 148 117 95 79 72 72 80 92 81 65 74 105 131 114 91 69 130 113 44 91 92 86 67 84 116 337 357 18 354 356 333 344 158 185 129 340 297 244 227 241 8 167 92 118 176 200 200 214 221 221 223 212 213
198 199 202 204 206 208 204 203 208 200 183 175 180 177 171 174 173 173 169 164 161 153 149 144 145 147 112 76 180 159 140 114 128 140 144 140 119 99 86 85 85 84 91 89 80 86 112 130 98 99 109 106 111 159 113 53 47 28 35 81 346 2 351 319 4 345 150 154 275 128 282 276 248 245 268 350 154 118 147 214 225 224 235 244 237 241 235 224
195 199 203 206 206 210 213 202 204 210 190 176 176 168 164 161 160 165 160 156 154 148 144 137 141 137 106 148 187 141 159 139 135 146 144 144 125 104 96 94 93 91 89 87 82 78 97 109 94 98 83 86 131 109 53 17 24 51 32 47 30 19 280 294 336 131 155 177 355 115 233 267 268 266 284 304 178 155 210 230 229 232 238 239 239 239 242 232
198 203 204 204 205 208 209 202 214 217 175 154 154 156 154 151 153 153 149 149 144 139 137 133 142 128 83 297 175 134 169 152 147 154 150 151 135 113 108 106 99 95 90 86 84 78 85 94 79 78 52 26 78 73 33 4 23 40 66 318 360 148 271 305 303 160 160 338 30 126 227 275 272 269 297 311 181 178 228 241 237 236 237 236 239 233 241 247
198 202 204 201 201 200 190 191 203 175 147 138 141 144 142 141 142 141 141 139 132 133 129 124 133 122 98 232 148 125 164 154 152 152 152 157 151 132 120 113 100 94 95 87 88 80 62 65 62 70 125 64 71 83 53 25 3 357 66 218 270 144 287 315 329 249 300 70 12 195 225 280 270 258 306 334 173 184 239 255 248 238 239 234 235 232 233 246
197 198 197 192 193 188 175 174 157 139 133 135 136 135 133 132 132 129 127 123 119 115 111 117 120 109 100 176 164 233 158 146 151 149 148 149 150 141 125 107 92 97 95 79 80 61 34 48 76 16 58 57 82 90 63 20 306 320 29 141 236 207 241 296 306 316 23 81 226 228 226 256 262 260 282 246 174 183 232 250 249 240 242 237 232 233 229 229
194 192 177 171 180 181 169 161 152 135 133 137 134 129 124 122 122 123 122 117 106 87 84 96 92 89 261 220 168 181 113 134 141 136 136 136 139 139 123 103 100 90 67 47 42 32 20 30 60 65 38 19 58 89 118 214 205 187 170 143 245 248 230 259 274 274 41 62 231 227 244 257 267 275 277 242 176 194 231 245 252 246 242 241 234 232 228 225
191 187 170 158 170 177 161 152 152 140 137 137 131 123 114 109 107 112 118 117 111 99 121 185 128 134 210 234 131 102 102 123 133 132 131 129 130 121 102 90 90 76 71 47 10 22 45 44 55 99 148 214 180 151 170 193 161 152 169 144 157 216 248 242 251 269 233 163 246 231 239 255 263 274 277 262 183 207 246 255 259 251 241 242 237 235 228 226
191 187 179 166 169 170 150 147 159 152 141 141 136 123 112 105 80 61 345 276 171 143 129 195 157 123 132 8 116 116 109 106 116 142 138 136 132 113 77 42 44 48 80 152 12 13 75 85 172 210 203 199 195 166 142 147 121 117 122 112 152 199 265 255 251 297 273 178 257 238 240 262 263 267 270 266 190 225 253 256 254 247 240 240 235 235 228 227
192 189 185 176 174 170 153 153 166 161 155 155 149 132 145 154 104 155 248 282 213 141 82 108 115 94 99 131 146 139 116 71 44 138 150 151 139 130 43 14 69 55 333 180 164 11 69 121 227 226 193 182 171 137 117 105 86 93 120 121 178 212 253 258 229 311 313 175 269 280 269 264 259 264 269 263 228 236 240 239 247 245 240 241 235 236 229 221
192 191 190 183 177 176 169 163 170 174 169 167 162 155 208 161 111 115 141 162 240 141 89 98 86 74 92 138 167 156 84 78 55 255 175 148 115 165 174 57 113 161 283 105 94 24 53 213 240 207 147 112 93 110 108 99 89 83 108 126 231 242 270 286 319 338 1 177 268 312 295 266 254 256 261 254 241 244 237 230 242 245 244 244 233 232 224 209
194 192 190 187 180 181 182 179 192 188 176 175 181 192 162 134 109 88 90 102 287 337 107 153 173 167 114 176 190 163 97 146 162 244 198 148 91 172 132 97 119 133 143 179 158 134 157 249 245 175 140 104 79 84 97 96 91 101 123 135 237 262 287 289 305 330 11 159 274 308 291 269 252 247 254 254 250 260 256 241 244 241 241 247 239 221 212 209
199 195 193 188 181 183 190 195 206 200 186 189 198 185 147 135 127 95 73 72 305 300 234 202 195 171 168 185 178 161 125 175 168 202 189 154 120 147 140 131 116 117 191 194 161 168 218 245 172 122 124 109 106 110 116 125 181 258 173 164 204 221 213 233 285 319 339 10 4 332 298 282 261 250 260 275 293 278 266 253 253 245 240 250 256 231 212 210
198 196 195 189 182 185 188 194 217 204 189 198 202 179 151 151 145 116 86 54 315 301 303 216 197 195 183 142 157 162 116 212 218 200 178 159 139 133 133 130 124 171 201 155 136 199 248 233 132 109 86 94 114 148 173 159 179 292 233 201 203 187 199 235 331 3 6 336 346 15 324 290 284 260 260 285 320 281 271 255 255 252 246 245 247 242 221 213
196 193 193 189 185 183 178 197 224 196 179 208 200 173 157 159 139 120 96 51 305 277 263 179 169 185 176 143 153 145 85 262 270 138 158 162 143 114 125 124 66 191 184 136 142 211 238 229 100 120 127 111 115 180 225 168 131 301 250 207 194 152 151 201 278 18 339 266 281 62 33 284 287 246 241 275 303 285 292 276 261 257 254 245 236 239 221 210
199 195 189 189 187 180 171 172 186 172 166 219 189 169 165 159 137 119 85 36 293 214 144 194 195 158 167 170 161 137 174 241 83 88 142 155 154 73 119 172 111 194 177 125 194 240 167 124 77 113 115 115 134 205 223 157 126 241 237 152 148 150 171 178 148 166 229 272 310 67 114 268 285 257 247 300 303 289 291 274 268 269 251 248 238 234 222 210
203 195 188 191 191 187 182 150 163 170 203 188 171 169 167 156 144 104 87 82 281 144 127 245 118 116 135 137 107 107 195 222 107 206 332 87 155 49 107 191 175 175 170 139 206 257 161 169 179 156 124 147 182 220 198 151 129 243 196 126 133 144 154 135 114 127 344 338 317 277 135 206 275 270 301 342 289 268 270 260 269 299 269 254 248 241 230 211
206 191 185 188 190 196 204 191 179 188 207 164 163 169 163 154 150 73 81 179 255 90 97 110 121 70 51 106 50 46 51 24 109 231 354 75 93 49 136 197 148 139 145 124 190 244 135 195 192 156 148 191 193 286 195 158 147 191 139 102 85 83 81 85 96 105 54 328 255 201 170 196 271 262 224 32 218 241 254 259 274 292 274 262 259 255 235 197
208 193 184 179 183 194 201 225 214 194 177 166 166 166 155 144 126 92 119 220 203 101 57 100 150 130 127 136 338 351 62 21 352 67 34 67 21 29 120 157 91 110 38 22 124 239 322 273 205 145 161 182 136 76 40 127 132 139 117 79 62 41 39 56 43 76 70 288 256 208 193 184 277 269 197 197 215 217 237 269 290 297 291 276 260 250 214 185
208 199 188 180 185 190 184 225 220 190 171 171 164 157 146 92 70 139 196 228 94 124 128 120 187 136 145 151 174 203 93 32 293 122 118 141 46 43 92 112 77 75 350 320 293 311 342 352 258 219 152 127 102 70 30 49 103 109 95 89 81 360 11 30 354 44 124 253 260 253 248 171 242 255 238 248 258 231 218 246 269 280 287 278 278 261 207 192
209 203 194 188 192 192 185 207 201 181 164 161 158 148 131 83 100 202 217 176 187 207 162 161 204 164 161 152 142 164 132 76 191 152 143 147 156 177 183 180 160 96 276 237 249 334 294 237 253 318 168 139 117 83 39 9 19 75 100 109 102 337 348 339 309 75 219 249 256 274 281 230 244 254 259 264 265 245 220 226 241 248 252 258 274 257 216 193
211 204 196 194 198 200 200 194 177 173 159 156 156 99 92 144 203 215 213 194 212 221 135 117 122 146 150 143 157 169 134 151 185 165 142 137 164 215 247 217 172 139 195 185 146 157 270 295 273 144 269 192 157 145 140 210 197 153 147 137 136 139 161 259 270 270 264 263 271 287 215 245 271 269 242 242 249 246 230 228 231 236 242 251 257 231 215 206
213 205 195 196 203 212 211 192 172 171 160 156 155 90 128 190 215 207 207 208 209 27 55 96 105 110 131 152 203 179 138 184 169 140 120 126 158 218 242 238 211 139 108 139 157 179 212 276 217 173 216 190 180 184 155 143 158 183 161 136 156 164 168 211 219 218 256 282 294 289 215 203 226 264 240 235 256 269 257 247 244 249 246 243 256 232 212 216
216 206 196 193 201 212 210 197 180 172 164 154 155 158 176 207 219 210 201 178 119 62 34 53 98 113 152 274 292 193 157 178 144 120 142 162 182 204 199 214 207 165 133 174 206 164 197 260 254 252 281 169 177 216 105 111 138 210 126 115 190 192 153 159 197 179 182 324 302 246 228 217 216 270 267 250 271 279 272 278 271 260 249 223 245 238 212 218
216 208 199 191 198 207 205 198 184 174 169 147 162 184 204 211 205 195 180 146 144 138 107 69 77 111 180 221 253 218 170 127 145 140 202 207 222 214 200 215 198 180 179 177 182 145 163 277 301 336 337 144 177 249 94 129 181 161 137 181 217 173 119 116 230 68 73 269 272 222 253 286 312 281 265 240 251 262 274 284 263 257 252 218 241 236 211 219
209 206 201 195 199 203 200 197 183 169 162 132 181 192 213 220 193 139 163 144 138 141 133 167 182 145 173 182 199 204 179 128 160 170 194 198 240 211 199 234 193 189 198 170 179 202 153 245 311 31 205 282 309 122 62 35 120 124 180 210 185 110 93 108 200 355 40 246 274 287 259 286 294 274 296 111 234 250 259 260 255 265 260 232 246 237 214 217
202 190 207 210 204 201 197 192 177 157 117 63 203 207 211 221 193 118 156 131 129 151 162 195 196 161 176 187 191 186 175 174 175 180 181 186 246 206 178 207 206 194 199 160 194 236 141 213 303 28 205 297 358 113 95 2 64 128 190 188 124 145 182 116 154 204 189 241 281 296 281 266 223 228 270 161 216 232 242 242 246 255 244 239 248 233 217 219
201 172 230 211 204 204 198 187 170 151 140 175 205 223 219 222 241 120 164 140 135 163 185 200 189 153 180 176 162 167 181 185 166 173 184 181 235 213 173 191 207 191 188 164 179 224 132 205 272 320 253 313 17 167 185 205 45 54 79 136 102 138 170 163 151 167 179 212 270 308 311 264 223 194 187 207 214 214 224 230 235 242 234 236 248 230 208 215
191 175 249 196 198 202 192 180 166 159 173 186 201 217 237 277 279 228 186 153 140 170 191 194 172 159 174 167 155 170 185 187 169 179 202 185 213 241 190 184 168 165 176 172 183 175 106 198 240 293 314 198 188 213 194 183 168 149 164 171 186 131 120 175 128 119 140 156 207 279 286 266 243 173 184 206 210 207 212 215 219 234 232 223 232 233 211 211
164 221 233 188 190 188 179 173 175 171 173 212 224 226 325 354 306 294 330 66 88 162 150 157 170 171 160 157 187 185 169 176 180 186 216 202 205 235 210 178 154 139 136 162 198 192 159 179 178 190 247 205 223 257 216 195 179 174 192 191 184 160 125 142 229 231 138 155 189 178 266 272 254 173 193 203 206 207 207 213 217 233 247 237 219 210 209 213
175 210 211 181 182 174 166 180 187 149 170 215 212 203 169 10 350 304 318 43 83 42 81 110 160 166 161 164 174 169 159 170 188 191 219 217 206 215 214 172 151 149 142 149 203 190 137 123 140 188 221 216 241 292 256 216 128 109 203 188 154 140 134 149 198 225 166 192 207 115 264 272 250 165 201 205 216 223 202 222 229 225 245 264 258 220 207 220
192 203 78 176 177 167 160 211 179 139 200 218 195 178 165 304 322 285 278 239 178 134 105 124 159 170 191 164 136 164 176 179 193 199 215 225 219 216 183 153 144 148 146 141 186 146 113 131 167 247 296 310 324 343 354 16 86 107 264 179 164 184 185 170 187 183 154 201 192 112 247 262 264 104 247 249 286 281 249 235 248 243 235 244 255 245 217 219
168 177 50 176 178 170 168 203 169 176 200 133 116 205 188 230 239 221 246 230 194 133 140 180 182 177 190 151 146 180 189 190 204 208 209 213 227 223 158 156 156 158 171 182 174 172 178 177 165 182 294 319 330 323 322 350 118 190 224 195 189 188 163 129 114 115 194 219 191 165 243 253 288 22 327 9 356 304 278 247 247 258 257 243 241 241 222 214
145 162 26 185 185 183 198 182 157 185 184 142 177 201 193 217 218 213 240 256 210 168 167 189 178 149 151 155 165 184 195 209 217 209 209 213 240 288 167 172 173 177 193 187 160 166 176 177 168 180 215 230 234 229 212 176 153 213 219 187 192 186 171 178 186 174 229 223 177 186 239 250 304 22 311 333 358 301 279 268 246 245 250 254 252 240 220 207
159 180 176 186 198 211 241 160 151 175 179 163 189 193 194 212 210 194 215 234 238 211 204 240 157 144 127 163 184 197 212 225 222 178 201 212 218 289 198 184 189 193 176 143 147 153 144 195 195 198 212 222 231 234 182 141 149 203 210 188 193 199 189 189 198 204 218 197 172 220 233 249 269 255 230 290 287 256 273 285 271 253 243 242 241 234 221 208
243 212 167 162 193 225 247 175 162 179 179 175 184 174 191 210 218 168 205 215 208 203 219 265 180 200 197 171 190 208 208 216 209 178 193 199 201 317 209 181 207 214 171 152 160 143 114 218 215 214 225 233 239 228 168 162 178 200 204 191 193 200 190 192 213 218 198 125 235 239 220 240 261 249 210 251 254 244 262 257 249 252 252 248 227 204 214 215
245 278 188 191 203 198 210 204 181 182 174 170 179 163 179 200 203 191 204 199 181 198 209 246 220 214 216 195 185 200 188 196 217 213 199 177 156 113 105 180 227 212 168 168 182 148 149 217 220 217 231 245 250 211 167 189 194 188 200 197 193 194 193 202 217 221 192 167 244 250 199 214 254 254 216 220 220 214 234 236 236 247 255 248 215 200 213 214
255 298 292 284 250 203 201 193 181 184 177 167 176 185 180 195 202 200 186 153 187 211 195 216 226 214 218 219 202 204 197 190 218 223 198 174 167 160 167 196 241 209 155 167 192 154 170 217 219 203 223 250 254 213 167 188 194 180 209 206 199 200 201 207 218 222 214 220 242 255 254 249 256 250 208 209 207 214 232 241 244 243 237 227 214 216 221 215
250 282 274 347 337 245 207 185 178 191 186 173 188 201 188 198 203 198 177 166 189 199 191 218 228 206 209 221 216 226 224 210 225 226 179 173 195 187 190 187 153 132 159 172 188 171 194 213 207 165 207 255 252 212 151 169 199 231 237 225 218 213 209 212 220 222 221 232 244 256 270 267 260 199 185 207 203 217 240 246 242 239 235 227 218 219 222 221
212 360 63 57 333 262 220 194 181 191 193 182 195 199 194 207 203 188 189 193 191 181 187 213 222 199 199 215 215 229 231 224 234 228 161 182 214 203 209 182 128 130 164 175 154 141 191 212 71 113 203 251 250 219 147 148 183 247 259 246 232 218 205 212 220 218 213 224 240 250 257 257 248 132 171 203 195 211 227 233 238 240 237 231 226 224 225 226
195 356 101 141 279 239 231 238 197 192 193 191 199 195 193 208 194 168 186 223 206 203 200 207 209 184 194 214 217 225 227 226 238 228 153 169 175 123 167 159 135 140 153 164 156 146 164 170 161 152 203 252 256 199 134 128 165 248 250 248 240 214 189 210 224 224 213 209 221 228 240 248 238 146 200 214 201 214 224 227 234 240 240 234 230 230 230 230
Height
798 798 798 798 798 799 800 801 801 802 803 804 805 805 806 807 807 808 808 808 809 809 809 810 810 810 810 810 810 810 810 810 810 811 812 814 814 815 814 814 814 813 813 813 812 812 813 813 813 813 813 817 822 824 825 827 830 828 835 842 845 855 853 847 852 852 846 844 847 851 851 849 851 854 855 855 855 855 857 856 856 856 856 856 855 855 856 856
798 797 797 798 798 798 799 800 801 802 802 803 804 805 806 806 806 807 808 808 809 809 809 809 810 810 810 810 810 809 809 810 810 811 812 814 814 814 815 814 814 814 813 813 812 812 813 814 813 814 816 821 826 825 826 829 830 833 843 843 842 848 846 844 845 846 846 842 844 850 853 851 849 851 854 853 854 856 855 854 856 855 853 855 855 855 855 856
797 797 797 797 798 798 799 800 800 801 802 803 804 804 805 805 806 807 807 808 808 809 809 809 810 809 810 809 809 809 809 809 811 813 813 814 814 814 815 814 814 813 813 812 813 812 813 814 813 815 818 823 829 828 827 830 832 839 843 837 839 843 844 848 847 845 847 845 845 849 854 853 850 852 853 852 853 856 853 850 852 851 850 852 855 855 855 856
797 797 797 797 797 798 798 799 799 800 801 802 802 803 804 804 805 806 806 807 807 808 808 809 809 809 809 808 809 809 808 811 814 814 813 814 814 814 814 814 814 813 813 813 812 813 813 813 813 816 820 825 831 831 830 833 834 840 841 835 842 846 844 846 847 847 850 850 847 848 853 852 851 854 852 852 853 853 849 846 847 846 846 850 854 855 855 856
796 796 797 796 796 797 798 798 798 799 800 800 801 802 803 803 804 805 806 807 807 808 808 809 809 809 809 808 809 807 808 816 817 813 813 814 814 814 814 814 814 813 813 812 813 813 813 813 814 818 822 826 830 830 833 838 836 839 844 844 847 849 843 845 850 851 852 852 849 850 851 850 852 853 852 852 850 847 845 844 845 845 846 848 851 853 855 856
796 796 796 796 796 796 797 797 798 798 799 799 800 801 802 803 803 804 805 806 807 807 808 808 808 809 808 808 809 806 811 819 816 812 814 814 814 815 814 814 814 813 813 813 813 813 814 815 817 822 826 830 834 832 834 841 839 837 845 849 850 849 845 848 852 851 852 849 847 849 849 851 852 850 854 853 846 843 844 846 846 846 848 848 849 852 853 854
795 796 796 796 796 796 796 797 797 797 798 798 799 800 801 802 803 804 805 805 806 807 807 808 808 808 808 808 808 808 812 816 813 812 814 813 814 815 814 814 814 813 813 813 813 814 817 817 820 826 829 832 836 835 836 839 837 835 841 846 849 851 848 850 852 851 851 846 848 852 849 851 850 849 857 852 841 842 846 847 847 846 847 848 849 851 851 852
795 795 795 795 796 796 796 796 796 797 797 798 798 799 800 801 802 803 804 805 806 806 807 807 808 808 808 808 808 812 814 813 812 813 813 814 814 814 815 815 814 814 814 813 815 815 817 819 823 828 829 833 835 835 838 837 835 837 841 845 847 850 850 852 852 850 850 848 852 852 848 851 853 854 855 844 838 843 846 846 847 847 847 848 849 850 851 852
793 794 794 794 795 795 795 795 796 796 796 797 798 799 800 801 802 802 803 804 805 806 806 807 807 807 808 808 809 815 815 812 812 812 813 814 814 815 815 815 815 814 814 815 815 814 817 821 824 824 827 834 834 835 838 835 837 841 843 845 845 847 850 852 850 849 850 850 852 848 847 852 855 856 848 838 840 845 847 847 847 847 847 848 849 850 850 851
793 793 794 794 795 795 795 795 795 796 797 797 798 799 799 800 801 802 803 804 805 805 806 806 807 807 807 807 811 816 814 811 812 812 813 814 815 815 815 815 815 815 815 816 816 815 817 819 822 821 824 832 835 838 841 837 840 844 844 845 844 846 849 850 847 850 851 850 851 848 848 851 854 855 842 837 845 847 846 846 848 848 847 849 849 850 850 850
793 793 794 795 795 795 795 795 796 796 796 797 798 798 799 800 801 802 803 804 805 805 806 806 806 807 806 807 813 816 812 811 812 812 814 814 815 815 815 816 816 816 816 816 817 817 818 818 820 821 824 831 835 840 842 841 843 845 844 843 845 846 847 849 847 849 850 849 851 849 849 852 854 852 839 839 848 847 845 845 848 848 847 849 849 850 850 850
792 793 794 795 795 795 795 796 796 796 796 797 798 798 799 800 801 802 802 803 804 804 805 805 806 806 806 809 812 813 811 812 812 812 814 814 815 816 816 817 816 817 816 817 819 818 819 819 819 822 827 831 835 840 841 844 846 846 845 843 846 845 845 849 850 852 850 848 851 850 850 851 850 845 837 842 849 847 846 844 846 848 848 849 850 850 850 849
791 792 793 794 794 794 795 795 796 796 796 797 798 798 799 799 800 801 802 803 803 804 805 805 806 806 807 811 812 811 811 812 812 813 814 814 815 816 816 817 817 817 817 817 819 819 820 820 820 823 829 832 837 841 840 845 846 845 848 847 848 847 847 852 854 854 851 850 852 852 853 846 840 838 838 845 848 845 844 842 845 847 847 849 849 850 849 849
790 791 792 793 793 794 794 795 796 796 796 797 797 798 799 799 800 801 801 803 803 804 804 805 806 805 808 811 811 811 811 812 812 813 814 815 815 816 817 818 818 818 818 818 819 820 820 820 820 824 831 834 838 840 841 847 847 848 851 855 861 855 848 852 856 854 850 853 854 852 856 846 835 836 841 847 847 844 840 839 844 845 846 848 848 849 848 848
789 790 791 792 793 793 794 795 796 796 796 797 797 798 798 799 800 800 801 802 802 804 804 804 805 806 809 811 810 811 811 811 812 813 814 815 815 816 818 818 819 819 819 820 820 821 822 821 822 829 836 837 838 839 844 847 850 856 853 855 868 863 850 850 856 857 851 852 855 852 855 849 837 835 842 848 848 846 840 838 843 843 845 846 846 848 846 846
789 790 791 791 793 793 794 795 795 796 796 796 797 797 798 798 799 800 801 801 802 803 803 805 805 806 810 811 810 810 811 811 812 813 814 815 815 816 818 818 819 820 820 821 821 822 821 822 831 838 838 839 840 840 846 851 853 861 857 853 863 862 855 852 853 860 856 853 854 852 852 846 836 835 843 850 848 847 843 839 841 842 843 844 844 845 845 844
788 790 790 791 792 793 794 794 795 795 795 796 796 797 797 798 799 800 801 801 802 803 803 804 804 805 809 810 810 810 811 811 812 813 813 815 816 816 817 818 820 820 820 821 821 823 823 828 838 841 840 845 846 842 847 855 854 860 864 860 864 866 861 854 849 858 860 855 853 852 853 845 834 835 841 846 847 847 842 836 837 840 841 842 842 843 842 842
788 789 790 791 792 793 793 794 794 794 795 795 795 797 797 798 799 800 801 801 802 803 804 805 805 810 813 809 809 810 810 811 812 813 814 814 816 816 817 818 820 821 822 824 824 826 828 834 839 839 844 848 847 844 847 853 850 853 859 857 863 867 865 859 852 856 858 854 853 854 854 847 837 836 835 839 846 844 837 835 837 839 839 839 840 839 839 840
788 789 789 790 791 792 793 793 794 794 794 795 795 796 797 798 799 800 801 801 801 803 806 805 804 811 813 807 809 810 810 812 812 813 814 815 816 816 817 819 821 822 825 828 828 832 833 835 840 841 844 844 843 842 841 846 845 847 853 853 856 858 858 859 855 859 861 855 853 853 850 845 840 838 833 834 843 842 836 837 838 837 837 836 836 835 836 836
787 788 789 790 791 791 792 793 793 793 794 794 795 795 796 798 801 803 803 801 801 802 803 803 803 806 807 807 810 810 811 813 813 814 814 815 815 816 819 821 823 825 829 831 833 839 839 839 840 837 836 837 841 845 845 851 852 851 855 855 859 859 853 852 855 861 865 855 848 850 851 847 843 839 834 833 840 841 837 835 833 832 832 831 831 830 831 832
786 787 788 789 790 791 791 792 792 793 793 793 794 794 794 795 798 801 802 802 802 802 802 803 805 805 805 808 809 809 811 813 814 815 815 815 815 817 822 825 826 830 838 841 839 840 841 840 837 834 839 842 846 852 851 853 854 852 855 856 861 864 854 851 857 861 864 858 849 849 852 848 843 839 833 834 836 833 829 828 825 824 826 826 825 825 827 829
785 786 787 789 789 790 791 791 792 792 792 793 793 794 794 793 793 794 796 800 801 803 804 805 805 806 807 808 808 809 810 813 816 816 815 816 816 818 824 828 828 834 843 844 840 841 844 840 834 840 849 850 853 856 850 850 854 853 859 860 858 863 859 853 860 863 863 859 850 850 852 844 841 839 830 827 827 823 821 821 819 818 818 818 818 820 823 826
784 785 787 788 788 790 790 791 791 791 792 793 793 793 793 792 793 793 793 798 801 803 805 804 804 805 808 808 808 809 809 812 816 816 815 816 817 820 823 827 831 837 842 839 836 842 845 839 838 847 848 844 851 857 851 851 855 855 858 858 856 862 860 850 855 861 863 864 857 855 853 841 836 835 826 822 822 819 817 817 817 816 813 809 811 815 818 821
782 784 786 786 788 789 789 791 791 791 792 792 792 792 792 792 793 792 794 802 805 803 803 803 803 804 805 805 805 808 810 812 812 812 813 814 818 822 822 828 835 838 839 837 837 839 837 840 849 852 845 841 847 855 853 849 852 857 859 855 851 855 856 853 856 859 861 865 866 858 843 830 830 830 821 819 824 820 815 815 813 811 810 808 810 812 813 815
781 783 784 785 788 788 789 790 790 791 791 792 792 791 793 792 793 792 795 807 809 803 803 803 802 801 800 803 804 806 810 811 810 810 811 813 816 821 825 830 833 835 839 842 843 840 836 844 850 847 847 846 845 850 850 846 848 853 855 851 848 848 853 858 860 858 856 856 865 862 840 825 826 826 817 812 815 811 809 812 806 803 807 808 809 809 810 813
780 782 783 785 787 787 790 789 789 791 790 791 790 791 793 791 794 793 796 815 815 803 803 802 800 799 797 802 805 806 811 811 809 810 811 813 814 816 824 831 832 834 840 843 844 841 840 847 847 842 846 848 845 847 849 849 849 851 853 853 854 855 856 859 859 859 856 853 865 869 853 839 825 814 813 811 808 804 804 805 798 798 804 805 806 806 808 811
779 781 782 784 785 786 788 787 788 790 789 789 788 791 793 791 795 791 799 827 820 796 798 802 800 796 795 802 802 804 813 811 809 812 812 813 814 814 820 830 833 834 840 842 841 840 839 846 848 842 844 848 847 845 845 849 848 848 857 859 856 856 856 859 859 859 861 859 865 866 859 856 835 813 818 819 812 810 804 795 789 794 800 799 802 804 806 808
777 780 781 783 784 785 786 786 787 788 787 786 787 791 791 792 795 791 808 834 814 787 792 798 797 795 797 802 801 804 811 808 808 814 814 813 815 815 819 826 826 827 835 836 834 838 838 839 842 840 842 845 845 844 845 846 843 849 865 865 859 859 858 861 861 861 869 864 862 864 860 860 840 817 824 826 817 812 800 788 786 791 795 794 798 803 806 808
776 778 780 782 784 785 786 786 786 786 785 785 787 790 790 793 793 796 821 829 798 783 790 793 795 798 801 804 805 807 809 809 810 813 815 815 815 816 820 825 825 828 835 832 829 836 840 840 841 838 837 839 844 854 854 843 840 856 870 865 863 867 864 866 863 860 869 862 856 862 856 852 835 811 818 825 817 808 795 788 790 791 793 793 796 802 806 808
775 777 779 781 783 784 785 785 784 784 785 786 787 790 790 794 796 812 835 819 786 787 796 793 797 801 803 806 810 810 809 813 815 814 817 817 816 818 822 825 827 830 834 834 834 838 843 846 845 839 837 841 848 859 860 851 850 859 861 855 858 863 862 867 868 865 868 856 853 861 855 851 839 814 810 814 807 802 795 790 791 790 792 793 795 801 806 808
773 775 778 779 780 782 783 784 782 782 785 785 788 790 791 797 805 820 827 800 781 793 797 797 802 803 802 803 807 810 811 816 817 815 818 820 820 821 823 825 827 832 836 834 836 841 843 842 841 840 843 846 846 852 860 861 861 856 849 848 854 859 862 867 869 871 867 853 856 871 869 863 846 816 807 806 801 803 800 792 787 787 790 791 794 802 806 808
771 773 775 777 779 780 781 781 780 782 785 785 789 790 791 805 815 813 804 787 784 791 790 796 804 803 802 800 803 810 811 815 816 815 818 822 823 821 820 819 822 831 835 833 836 841 838 836 839 841 845 844 837 844 858 861 860 853 847 851 856 862 866 864 869 878 870 857 864 875 870 861 842 813 805 803 794 794 798 795 790 787 788 789 795 802 805 808
769 771 774 775 777 778 779 779 780 782 783 785 789 788 793 810 811 798 790 782 783 789 788 794 801 802 802 801 805 811 810 812 815 816 818 820 823 822 818 817 818 820 823 830 838 839 835 836 839 838 839 838 830 834 847 852 855 851 846 849 853 863 868 863 873 884 870 857 868 878 867 852 831 807 798 794 785 785 792 795 794 791 790 791 796 802 804 808
768 769 771 773 775 776 778 780 781 781 783 785 788 790 798 806 794 782 783 781 784 793 793 795 800 803 804 803 806 808 808 813 817 817 819 821 824 824 820 819 820 817 820 830 835 834 832 829 830 830 829 830 827 827 830 837 848 850 846 846 844 848 853 850 855 857 851 853 866 874 860 835 814 797 790 790 788 789 790 792 797 796 796 799 800 803 804 805
767 768 769 771 774 775 777 780 780 781 784 785 786 791 796 794 780 773 777 781 787 794 796 797 800 804 806 807 809 807 804 811 818 819 820 821 821 820 816 814 816 817 818 823 827 833 832 823 824 831 830 828 827 828 830 832 842 850 850 847 843 839 837 849 865 865 862 862 859 859 843 819 805 792 788 793 790 788 789 791 795 791 793 800 799 799 801 802
766 767 768 769 770 771 774 778 779 781 783 783 787 790 784 772 764 764 768 772 781 789 795 800 800 803 808 808 809 808 804 808 816 819 819 820 818 815 811 806 808 813 810 812 820 828 829 826 832 836 832 832 833 831 832 830 832 846 851 844 845 845 836 848 874 885 882 864 845 843 829 813 807 789 779 787 784 782 786 786 786 785 788 794 792 793 797 799
765 765 766 766 766 769 772 776 779 781 784 785 782 778 770 759 754 757 760 765 773 780 786 791 793 796 803 806 807 807 805 807 813 814 814 819 813 804 806 803 801 805 801 802 811 815 816 822 835 838 830 835 842 835 833 835 833 841 845 839 843 849 843 842 854 867 876 864 843 839 828 816 813 793 777 784 785 781 782 780 779 782 787 788 784 787 793 795
763 764 764 763 765 768 770 774 777 781 789 793 783 769 762 758 755 756 759 762 768 772 774 778 782 786 793 798 801 804 803 802 810 812 811 815 803 789 796 799 795 799 798 799 805 808 811 815 831 847 839 835 842 834 831 838 839 837 837 836 837 840 843 847 849 848 857 861 845 835 833 820 806 792 778 778 778 773 774 777 777 777 779 780 777 782 790 793
762 763 761 759 762 765 768 772 774 778 787 792 787 772 762 759 758 759 760 761 762 766 768 769 773 781 788 790 793 800 800 798 806 809 803 806 798 783 786 788 789 796 797 798 803 806 811 811 823 845 845 837 837 833 831 835 839 840 839 839 836 835 838 843 847 842 841 851 844 832 825 800 778 778 774 768 769 766 765 770 774 773 772 773 774 777 785 791
760 761 758 755 758 762 765 770 772 777 781 779 775 769 763 761 761 760 762 761 760 762 764 764 767 776 784 789 790 793 795 795 801 801 794 795 793 784 783 782 785 796 797 798 802 804 811 811 817 838 847 839 830 826 825 823 828 833 835 837 837 839 843 840 844 848 839 842 846 842 824 782 760 771 767 758 763 762 761 763 764 769 767 765 772 777 781 786
759 761 756 752 756 759 763 769 768 773 779 777 772 770 769 768 765 763 763 762 762 762 762 762 764 769 777 785 786 786 791 795 797 796 790 789 785 779 779 777 780 792 799 803 803 801 807 811 816 833 840 830 821 824 828 822 820 821 822 826 826 830 839 837 842 851 845 839 840 843 824 775 754 768 761 753 759 758 764 765 757 763 768 765 769 774 779 783
758 759 753 751 754 757 763 766 763 769 778 775 770 769 771 772 769 766 764 762 762 763 763 763 764 767 772 776 779 783 787 790 794 793 785 782 778 773 775 776 778 784 790 798 799 795 800 808 813 823 827 824 825 834 841 835 826 823 821 822 823 825 827 825 830 838 843 844 840 845 832 776 751 767 761 757 766 764 769 773 760 757 766 772 775 774 778 781
754 754 752 751 752 754 761 763 762 769 776 773 769 769 771 773 772 769 766 763 762 762 764 764 765 766 768 770 775 780 781 782 788 786 779 778 776 771 774 777 779 781 783 790 795 794 799 805 808 814 818 823 830 835 839 836 828 825 825 824 823 819 815 816 821 825 831 834 832 844 834 777 752 773 773 769 777 773 772 775 769 759 759 771 778 775 776 780
749 751 751 752 753 753 756 759 763 770 773 775 776 774 773 774 772 770 767 763 762 763 763 764 765 764 765 767 769 773 773 773 777 779 776 776 775 774 776 775 776 778 777 780 783 787 795 800 804 812 815 818 824 826 829 831 828 822 819 821 818 813 816 821 824 827 825 814 812 827 815 771 758 776 775 771 776 771 767 772 776 770 762 766 774 774 776 780
747 750 752 752 752 752 751 752 759 766 770 774 777 775 775 775 770 768 768 765 764 764 762 762 763 762 764 767 766 768 768 762 764 772 775 774 775 777 778 776 774 773 772 774 773 777 786 791 796 805 810 810 806 802 806 816 823 819 813 815 816 812 814 814 817 825 817 801 805 811 790 762 760 768 767 768 770 766 762 766 772 772 766 768 773 774 777 780
745 747 750 752 752 751 748 747 752 760 767 772 773 772 773 773 767 766 768 767 765 764 763 763 763 762 764 767 767 767 767 762 761 769 773 772 772 776 779 777 774 771 772 773 774 777 784 785 785 787 788 786 779 777 787 798 806 807 802 806 811 808 807 807 811 813 802 798 803 793 773 763 761 760 763 765 766 764 761 763 766 765 762 765 771 776 778 779
745 742 744 747 750 750 750 749 750 753 759 764 766 767 769 769 767 767 768 765 763 764 765 764 764 764 765 766 767 766 766 765 766 767 769 770 770 776 781 780 777 774 773 773 774 778 783 784 782 779 776 772 767 774 786 788 788 790 792 799 805 806 808 809 802 790 786 799 795 771 771 778 763 755 762 762 761 765 763 761 759 758 759 763 768 774 776 775
745 741 738 738 740 743 746 746 747 749 753 758 762 764 766 768 768 767 765 764 763 764 767 769 766 764 763 762 765 767 765 766 766 764 765 768 771 774 777 779 779 776 774 774 774 776 780 780 777 778 778 773 770 780 788 785 785 787 789 794 799 803 805 801 791 780 783 795 781 759 771 779 758 751 760 759 758 759 755 754 755 756 760 763 766 768 768 769
745 744 741 738 737 736 736 738 743 747 751 755 759 761 763 765 764 762 760 764 767 764 765 768 764 761 762 762 764 766 765 764 764 761 761 764 767 769 770 773 777 778 776 775 776 777 777 776 774 777 780 775 773 781 785 784 786 788 787 790 793 794 793 788 783 782 786 786 771 763 775 770 750 749 755 754 755 753 750 752 755 755 756 757 761 762 760 763
745 744 742 742 740 737 736 737 741 746 748 750 753 754 756 757 757 756 755 758 764 765 762 762 759 759 762 763 764 765 761 758 758 757 758 762 764 765 765 764 771 780 780 776 777 780 777 775 774 776 780 775 770 778 787 787 785 785 785 786 785 785 787 788 786 786 787 784 773 776 782 763 742 745 750 750 751 752 751 752 751 750 749 750 754 756 755 757
743 743 742 745 744 740 738 736 738 743 745 746 745 745 749 751 749 751 752 750 753 757 757 755 755 758 762 763 764 761 756 756 757 756 758 760 761 761 761 762 766 775 780 779 778 778 779 780 778 779 783 776 765 774 788 789 788 790 786 776 772 778 787 789 785 780 780 781 781 787 782 754 739 746 748 747 749 749 748 748 746 744 743 745 748 750 751 751
743 743 743 746 746 741 740 739 735 735 736 737 736 736 739 742 743 748 753 750 747 747 747 748 751 757 762 762 759 753 751 754 756 757 759 760 761 761 761 763 764 767 774 780 780 778 778 781 780 782 786 777 766 772 783 788 793 790 771 752 753 770 781 780 776 773 774 776 777 776 759 736 738 749 747 747 749 746 742 741 738 737 737 739 743 744 745 745